Location: Cortos
(40.7190°N, 4.5893°W)
Time: 18:40:27
(UTC+00:00)

BREEZE M DEB (TANK) - Pass Details

Date: 05 July 2020
Orbit: 285 x 14546 km, 49.5° (Epoch: 05 August)

Event Time Altitude Azimuth Distance (km) Brightness Sun altitude
Rises 21:17:25 0° 301° (WNW) 3,056 8.2 -13.3°
Reaches altitude 10° 21:20:35 10° 316° (NW) 1,488 6.5 -13.7°
Maximum altitude 21:22:54 24° 15° (NNE) 692 3.7 -14.0°
Enters shadow 21:24:10 14° 67° (ENE) 921 3.8 -14.2°
